Dewpoint
63 66 74 74 71 71 70 70 70 70 70 70 69 70 70 70 70 70 70 70 70 70 69 68 68 68 69 68 69 68 68 67 66 67 67 66 66 67 66 65 66 64 68
63 65 74 74 72 71 71 71 72 71 71 70 70 70 70 70 70 70 70 70 69 69 69 69 69 69 68 68 69 69 69 69 68 68 67 67 66 66 66 66 67 66 67
63 65 70 74 73 72 72 71 71 71 71 70 70 71 71 71 70 70 70 70 69 69 70 69 69 69 69 69 68 68 67 66 65 65 65 64 63 65 66 67 67 67 67
63 65 70 74 73 72 72 71 71 71 71 71 71 71 71 69 68 67 68 69 69 69 68 67 67 67 68 68 68 67 65 63 63 62 62 62 61 66 67 66 66 67 66
64 65 67 73 73 73 72 72 72 72 71 70 71 70 69 67 66 65 66 67 67 67 65 65 65 65 64 64 64 64 62 64 64 63 63 64 63 66 66 65 64 65 66
64 65 70 73 73 73 72 72 71 71 70 69 69 68 67 66 66 65 64 64 64 63 62 63 63 62 61 61 61 60 61 64 64 61 62 63 62 66 65 65 65 64 65
65 66 68 73 73 73 72 72 71 70 69 68 67 67 65 64 63 62 61 61 61 61 61 61 60 60 60 59 58 59 63 64 57 60 60 60 63 65 64 64 63 63 64
66 67 68 71 72 72 71 71 70 69 68 67 65 64 62 61 61 61 61 60 59 59 58 58 58 59 59 59 61 63 63 63 58 59 59 60 65 64 63 62 61 62 64
66 67 68 68 70 70 70 70 69 67 66 64 62 62 61 61 61 60 59 59 58 58 57 57 57 58 60 63 64 64 63 63 57 58 57 58 64 61 62 60 62 64 63
67 68 67 68 69 68 67 68 67 66 64 62 62 62 62 61 60 59 58 57 57 57 58 59 59 59 62 63 63 62 61 62 57 57 56 60 60 60 60 63 64 63 65
66 68 69 69 67 66 65 63 63 63 63 63 62 59 56 51 52 53 60 60 59 58 59 58 58 61 63 62 61 59 59 54 54 54 56 65 63 63 65 64 64 64 63
66 66 66 65 63 62 61 61 59 56 55 54 55 52 49 51 51 52 55 56 56 59 59 58 60 60 59 54 54 56 52 52 52 55 61 64 64 64 63 63 63 63 62
64 65 64 64 62 60 59 58 54 51 52 52 53 52 51 52 49 47 47 47 47 50 50 52 53 51 52 53 53 52 52 51 51 54 59 62 63 62 61 60 60 60 60
62 64 63 62 61 59 57 54 49 47 50 50 51 51 51 51 50 46 44 47 47 47 50 51 50 52 53 53 52 51 51 50 49 52 56 59 60 61 61 60 59 58 59
57 62 63 61 58 56 55 51 48 47 49 49 50 50 50 50 48 45 42 42 43 46 49 50 50 51 51 52 52 51 51 50 49 51 53 56 55 56 56 55 56 56 56
48 61 61 59 57 54 54 52 49 48 49 49 50 49 48 48 46 43 41 40 40 45 50 50 50 51 51 51 51 51 50 51 50 50 49 49 52 52 52 52 52 51 51
47 61 59 58 56 52 52 51 50 49 49 49 49 49 48 46 44 42 39 38 38 44 49 50 49 48 47 46 47 50 50 50 51 50 50 49 48 49 50 51 50 50 49
42 59 58 57 54 51 51 50 49 49 49 48 48 48 46 45 44 41 37 36 36 42 48 48 48 46 45 45 45 48 49 50 51 51 51 49 47 45 46 48 48 48 48
41 58 57 56 54 52 51 49 49 49 49 48 47 47 46 43 40 37 34 33 33 35 39 41 44 43 36 33 29 34 45 48 49 47 47 46 46 46 44 44 45 44 46
49 58 56 54 54 52 50 49 49 48 47 47 46 46 45 40 37 35 33 32 30 31 31 33 32 32 32 31 21 24 32 42 49 48 47 45 46 46 45 45 45 44 43
56 57 55 53 53 52 50 47 47 46 46 45 44 44 42 40 37 36 33 31 31 29 29 29 31 32 32 33 31 31 34 39 41 47 48 48 48 47 46 44 40 38 38
56 56 53 52 51 52 51 48 48 46 45 45 44 43 42 38 37 34 34 33 33 32 31 31 31 30 32 34 31 30 27 31 28 30 36 38 41 39 34 34 35 35 36
55 55 53 52 52 51 51 49 48 47 45 44 43 43 41 38 37 36 35 33 34 34 34 35 35 32 32 33 33 32 29 26 29 28 30 29 30 32 33 34 33 33 34
54 55 53 52 53 52 51 49 48 46 44 44 43 42 40 38 37 38 38 37 38 37 36 36 35 35 36 33 35 31 33 33 31 30 29 32 31 29 31 31 31 31 34
54 54 53 51 51 52 51 49 48 46 46 44 43 42 40 39 39 39 40 40 39 39 39 39 39 39 38 38 38 37 35 33 34 33 27 28 29 30 32 28 30 30 31
54 53 52 51 51 51 51 49 48 48 47 45 43 42 42 41 42 42 41 42 41 40 41 40 41 41 40 40 39 39 37 35 34 33 31 29 29 30 29 31 28 31 28
Lifted_Index
-1 -2 -3 -3 -2 -2 -2 -2 -2 -2 -2 -2 -1 -1 -1 -1 -1 -1 -1 -1 -1 -1 -0 0 0 0 0 0 -0 0 1 1 2 2 3 3 3 2 2 2 2 1 1
-1 -2 -3 -3 -2 -2 -2 -2 -2 -2 -2 -2 -2 -2 -2 -2 -1 -1 -1 -1 -1 -1 -0 -0 0 0 0 0 0 0 1 1 2 2 3 3 3 2 2 2 2 1 1
-1 -2 -3 -3 -3 -2 -2 -2 -2 -2 -2 -2 -2 -2 -2 -1 -1 -1 -1 -1 -0 -0 -0 0 0 0 0 0 0 1 1 2 3 3 3 3 3 2 2 2 1 1 0
-1 -2 -3 -3 -3 -3 -3 -2 -2 -3 -3 -2 -2 -2 -1 -1 0 1 1 0 0 1 1 1 1 1 1 1 1 2 3 4 4 3 3 2 2 2 2 2 1 1 0
-2 -2 -3 -3 -3 -3 -3 -3 -3 -3 -2 -2 -2 -1 -0 0 1 2 2 2 2 2 3 3 3 3 3 3 3 4 4 4 4 3 3 2 2 2 2 2 1 1 0
-2 -2 -3 -3 -3 -3 -3 -3 -3 -2 -2 -1 -1 0 1 2 3 3 4 4 4 4 4 4 4 5 5 5 5 5 5 4 4 3 3 3 3 2 2 2 2 1 1
-2 -2 -3 -3 -3 -3 -3 -2 -2 -1 -1 0 1 2 3 3 4 5 5 5 6 6 6 6 6 6 6 6 6 6 5 5 4 4 3 3 3 2 2 2 2 2 1
-2 -2 -3 -3 -3 -2 -2 -2 -1 -0 0 1 2 3 4 5 5 6 6 6 7 7 7 7 7 7 6 6 6 5 5 5 5 4 4 4 3 3 3 3 3 2 2
-2 -2 -3 -3 -2 -2 -1 -1 -0 1 2 3 4 5 6 6 6 6 7 7 7 8 8 7 7 7 6 5 5 5 5 5 5 5 5 4 4 4 3 3 2 2 1
-2 -3 -3 -2 -2 -1 -1 0 1 2 3 4 5 6 7 7 7 8 8 8 8 8 8 8 7 7 6 5 5 6 6 6 5 5 5 5 4 4 3 2 2 2 2
-2 -2 -2 -2 -2 -1 -0 0 1 3 4 5 7 8 9 9 9 9 9 8 8 8 8 8 7 7 6 6 7 7 7 7 6 6 5 4 4 4 3 2 2 2 2
-2 -2 -2 -2 -2 -1 -0 1 2 3 5 7 8 9 9 10 10 10 10 10 10 9 9 8 8 7 7 7 7 8 8 8 7 6 5 4 3 3 4 3 3 3 3
-1 -1 -2 -2 -2 -1 -0 1 2 4 7 9 9 9 10 10 10 11 11 12 11 11 10 9 9 8 8 8 8 8 8 8 8 7 6 4 4 4 5 5 5 4 4
1 -0 -2 -2 -2 -1 -0 0 2 5 8 10 10 10 10 10 11 12 12 13 12 12 11 10 9 9 9 8 8 8 8 9 9 8 7 6 6 6 6 6 6 6 5
3 1 -1 -2 -2 -1 -0 0 2 5 9 10 10 10 10 11 12 12 13 13 13 12 11 10 10 9 9 9 8 8 9 9 9 9 8 8 7 7 8 8 8 8 8
5 3 1 -1 -2 -1 -1 0 2 6 9 10 11 11 11 12 12 13 14 14 14 13 11 10 10 10 10 10 9 9 9 9 9 9 9 9 9 10 10 11 11 11 10
6 4 2 -0 -2 -1 -1 0 3 7 10 11 11 11 12 12 13 13 14 14 14 13 12 11 11 11 11 11 11 10 9 9 9 9 9 10 11 12 12 12 12 12 12
6 4 2 1 -1 -1 -1 1 4 8 10 11 11 12 12 13 13 13 14 14 14 14 13 12 12 12 13 13 13 11 10 9 9 9 10 10 11 12 13 14 14 14 14
4 3 3 1 -0 -1 -0 2 6 9 11 12 12 12 13 13 13 13 14 14 15 15 15 15 14 15 15 16 15 14 12 11 10 10 10 11 12 12 13 14 15 15 15
2 2 2 2 1 -0 0 3 6 9 11 12 13 13 13 13 13 14 14 14 15 16 17 17 17 17 17 17 17 16 15 13 11 10 11 11 11 12 13 13 14 15 15
-0 0 2 2 1 1 1 2 4 7 11 13 13 13 14 14 14 14 14 15 16 17 17 18 18 17 17 17 16 16 15 14 13 12 12 12 12 12 13 14 14 15 15
-1 -0 1 1 1 2 2 3 4 8 11 13 13 14 14 14 14 14 15 16 16 17 17 17 17 17 16 16 15 14 13 13 14 14 14 13 13 14 14 15 16 16 16
-1 -1 0 0 1 2 3 4 6 9 11 12 13 13 14 14 14 15 15 15 16 16 16 16 16 16 15 15 15 14 13 13 14 14 15 15 15 15 15 16 16 17 17
-1 -1 -1 -0 1 3 4 5 6 8 10 12 13 13 13 14 14 15 15 15 15 15 15 15 15 15 15 15 14 14 14 14 14 14 14 15 15 16 16 16 17 17 17
-1 -1 -1 -0 1 3 5 6 7 8 10 11 12 13 13 14 14 14 14 14 15 15 15 15 15 15 15 15 15 15 15 15 15 14 14 14 15 15 16 16 17 17 18
-1 -1 -1 -0 1 4 6 7 8 8 10 11 12 12 13 13 13 14 14 14 14 14 15 15 15 15 15 15 15 15 15 15 15 14 13 13 14 15 15 16 17 18 18